Home   Weather   Cape Dorset   Past weeks

Flag for Canada Past Weather in Cape Dorset, Nunavut, Canada — Yesterday and Last 2 Weeks

Now
0 °F

Clear.


Feels Like: -17 °F
Forecast: -1 / 3 °F
Wind: 10 mph from North

Location: Cape Dorset

Current Time: Dec 7, 2016 at 5:39:53 am

Latest Report: Dec 7, 2016 at 5:00 am


Visibility: 9 mi

Pressure: 29.98 "Hg

Humidity: 84%

Dew Point: -4 °F

Location of Cape DorsetLocation

Past Weather in Cape Dorset — Graph

°F

Cape Dorset Temperature Yesterday

Maximum temperature yesterday: 10 °F (at 12:00 am)
Minimum temperature yesterday: 1 °F (at 7:00 pm)
Average temperature yesterday: 6 °F

High & Low Weather Summary for the Past Weeks

 TemperatureHumidityPressure
High27 °F (Nov 23, 11:00 am)100% (Nov 23, 5:00 pm)30.40 "Hg (Nov 23, 5:00 pm)
Low1 °F (Dec 6, 7:00 pm)73% (Dec 5, 7:00 pm)29.91 "Hg (Nov 23, 10:47 pm)
Average18 °F91%30.14 "Hg
* Reported Nov 22 4:00 am — Dec 7 4:00 am, Cape Dorset, Weather by CustomWeather, © 2016

Note: Actual official high and low records may vary slightly from our data, if they occured in-between our weather recording intervals... More about our weather records

Advertising

Cape Dorset Weather History for the Previous 24 Hours

Scroll right to see more
 ConditionsComfort  
Time TempWeatherWind HumidityBarometerVisibility
4:00 am
Wed, Dec 7
1 °FClear.14 mph78%29.98 "Hg9 mi
3:00 am1 °FClear.6 mph78%29.97 "Hg9 mi
2:00 am1 °FClear.13 mph85%29.97 "Hg9 mi
1:00 am1 °FPassing clouds.10 mph85%29.97 "Hg9 mi
12:00 am1 °FClear.10 mph78%29.97 "Hg9 mi
11:00 pm
Tue, Dec 6
1 °FClear.8 mph78%29.97 "Hg9 mi
10:00 pm1 °FClear.5 mph85%29.98 "Hg9 mi
9:00 pm1 °FClear.9 mph85%29.98 "Hg9 mi
7:00 pm1 °FLight snow. Clear.12 mph85%29.99 "Hg9 mi
6:00 pm3 °FClear.8 mph85%30.00 "Hg9 mi
5:00 pm5 °FLight snow. Clear.10 mph78%29.99 "Hg9 mi
4:00 pm5 °FPassing clouds.8 mph85%30.00 "Hg15 mi
2:00 pm9 °FPassing clouds.10 mph78%30.00 "Hg15 mi
12:00 pm5 °FPassing clouds.3 mph85%30.00 "Hg15 mi
11:00 am7 °FPassing clouds.7 mph78%30.01 "Hg15 mi
10:00 am7 °FLow level haze.14 mph85%30.02 "Hg15 mi
9:00 am7 °FPassing clouds.15 mph78%30.02 "Hg15 mi
8:00 am3 °FClear.6 mph92%30.01 "Hg9 mi
7:00 am3 °FClear.5 mph85%30.01 "Hg9 mi
6:00 am7 °FClear.6 mph85%30.02 "Hg9 mi
5:58 am7 °FClear.5 mph85%30.02 "Hg9 mi
5:00 am7 °FClear.8 mph85%30.02 "Hg9 mi
Weather by CustomWeather, © 2016

See weather overviewHow to use our weather pages